Location: Seattle
(47.6064°N, 122.3308°W)
Time: 00:38:30
(UTC-08:00)

Tiros 1 - Pass Details

Date: 02 December 2020
Orbit: 630 x 663 km, 48.4° (Epoch: 28 January)

Event Time Altitude Azimuth Distance (km) Brightness Sun altitude
Rises 19:59:20 0° 285° (WNW) 2,988 11.5 -36.2°
Reaches altitude 10° 20:01:58 10° 274° (W) 2,069 10.5 -36.7°
Enters shadow 20:03:31 18° 260° (W) 1,609 9.7 -36.9°
Maximum altitude 20:05:58 27° 217° (SW) 1,251 - -37.3°
Drops below altitude 10° 20:09:55 10° 160° (SSE) 2,043 - -38.0°
Sets 20:12:30 0° 148° (SSE) 2,944 - -38.4°
